This is the latest recevied weather packets stored in our database for station/object N3AVN. If no packets are shown the sender has not sent any weather packets the latest 10 day(s).
| Time | Temp. | Humidity | Pressure | Rain* | Wind** | Luminosity | Snow |
|---|---|---|---|---|---|---|---|
| 1777645225 | 13.89° C | 47% | 1009.9 hPa | 0 mm | - | 832 W/m² | - |
| 1777644921 | 12.78° C | 50% | 1010 hPa | 0 mm | - | 732 W/m² | - |
| 1777644619 | 12.22° C | 52% | 1010.1 hPa | 0 mm | - | 706 W/m² | - |
| 1777644315 | 12.22° C | 51% | 1010.2 hPa | 0 mm | - | 119 W/m² | - |
| 1777644011 | 12.78° C | 50% | 1010.2 hPa | 0 mm | - | 783 W/m² | - |
| 1777643702 | 13.33° C | 50% | 1010.2 hPa | 0 mm | - | 220 W/m² | - |
| 1777643400 | 13.89° C | 55% | 1010.3 hPa | 0 mm | - | 716 W/m² | - |
| 1777643096 | 12.78° C | 54% | 1010.4 hPa | 0 mm | - | 580 W/m² | - |
| 1777642793 | 12.22° C | 57% | 1010.4 hPa | 0 mm | - | 732 W/m² | - |
| 1777642489 | 12.22° C | 55% | 1010.1 hPa | 0 mm | - | 662 W/m² | - |
| 1777642186 | 11.11° C | 62% | 1010.5 hPa | 0 mm | - | 407 W/m² | - |
| 1777641883 | 11.67° C | 61% | 1010.4 hPa | 0 mm | - | 607 W/m² | - |
| 1777641578 | 10° C | 66% | 1010.5 hPa | 0 mm | - | 98 W/m² | - |
| 1777641278 | 10° C | 67% | 1010.5 hPa | 0 mm | - | 87 W/m² | - |
| 1777640975 | 10.56° C | 65% | 1010.1 hPa | 0 mm | - | 86 W/m² | - |
| 1777640672 | 11.11° C | 63% | 1010.4 hPa | 0 mm | - | 132 W/m² | - |
| 1777640368 | 11.11° C | 64% | 1010.4 hPa | 0 mm | - | 528 W/m² | - |
| 1777640065 | 11.11° C | 64% | 1010.5 hPa | 0 mm | - | 434 W/m² | - |
| 1777639762 | 10.56° C | 65% | 1010.6 hPa | 0 mm | - | 358 W/m² | - |
| 1777639459 | 11.11° C | 68% | 1010.6 hPa | 0 mm | - | 395 W/m² | - |
| 1777639155 | 10° C | 68% | 1010.3 hPa | 0 mm | - | 331 W/m² | - |
| 1777638852 | 10° C | 68% | 1010.6 hPa | 0 mm | - | 296 W/m² | - |
| 1777638547 | 10° C | 68% | 1010.5 hPa | 0 mm | - | 262 W/m² | - |
| 1777638244 | 10° C | 69% | 1010.4 hPa | 0 mm | - | 311 W/m² | - |
| 1777637940 | 9.44° C | 70% | 1010.7 hPa | 0 mm | - | 269 W/m² | - |
* Rain latest hour (hover to see other rain measurements)
** Current wind speed in m/s (hover to see current wind gust speed)